SCP
0 0 0 0 0 0 0 0 0 0 0 0 0 0 0 0 0 0 0 0 0 0 0 0 0 0 0 0 0 0 0 0 0 0 0 0 0 0 0 0 -0 0 0 0
0 0 0 0 0 0 0 0 0 0 0 0 0 0 0 0 0 0 0 0 0 0 0 0 0 0 0 0 0 0 0 0 0 0 0 0 0 0 -0 -0 0 0 0 0
0 0 0 0 0 0 0 0 0 0 0 0 0 0 0 0 0 0 0 0 0 0 0 0 0 0 0 0 0 0 0 0 0 0 0 0 0 -0 -0 -0 0 0 0 0
0 0 0 0 0 0 0 0 0 0 0 0 0 0 0 0 0 0 0 0 0 0 0 0 0 0 0 0 0 0 -0 -0 0 0 0 0 -0 -0 -0 -0 0 0 0 0
0 0 0 0 0 0 0 0 0 0 0 0 0 0 0 0 0 0 0 0 0 0 0 0 0 0 0 0 -0 -0 -0 0 0 0 0 -0 -0 -0 -0 0 0 0 0 0
0 0 0 0 0 0 0 0 0 0 0 0 0 0 0 0 0 0 0 0 0 0 0 0 0 0 0 -0 -0 -0 -0 -0 0 0 0 -0 -0 -0 -0 0 0 0 0 0
0 0 0 0 0 0 0 0 0 0 0 0 0 0 0 0 0 0 0 0 0 0 0 0 0 0 -0 -0 -0 -0 -0 0 0 0 0 -0 -0 -0 0 0 0 0 0 0
0 0 0 0 0 0 0 0 0 0 0 0 0 0 0 0 0 0 0 0 0 0 0 0 0 0 -0 -0 -0 -0 -0 0 0 0 0 -0 -0 -0 0 0 0 0 0 0
0 0 0 0 0 0 0 0 0 0 0 0 0 0 0 0 0 0 0 0 0 0 0 0 0 -0 -0 -0 -0 -0 0 0 0 0 0 -0 0 0 0 0 0 0 0 0
0 0 0 0 0 0 0 0 0 0 0 0 0 0 0 0 0 0 0 0 0 0 0 0 -0 -0 -0 -0 0 0 0 0 0 0 -0 0 0 0 0 0 0 0 0 0
0 0 0 0 0 0 0 0 0 0 0 0 0 0 0 0 0 0 0 0 0 0 0 0 -0 -0 -0 -0 -0 -0 0 0 0 -0 -0 0 0 0 0 0 0 0 0 0
0 0 0 0 0 0 0 0 0 0 0 0 0 0 0 0 0 0 0 0 0 0 0 0 -0 -0 -0 -0 -0 -0 0 0 0 -0 -0 0 0 0 0 -0 -0 -0 -0 -0
0 0 0 0 0 0 0 0 0 0 0 0 0 0 0 0 0 0 0 0 0 0 0 0 -0 -0 0 0 -0 0 0 -0 0 -0 0 -0 -0 0 -0 0 -0 -0 -0 -0
0 0 0 0 0 0 0 0 0 0 0 0 0 0 0 0 0 0 0 0 0 0 0 0 -0 -0 -0 0 -0 -0 0 0 0 -0 -0 -0 -0 0 -0 -0 -0 0 -0 0
0 0 0 0 0 0 0 0 0 0 0 0 0 0 0 0 0 0 0 0 0 0 0 -0 -0 -0 -0 0 0 -0 -0 0 0 0 -0 -0 0 0 0 -0 -0 0 0 0
0 0 0 0 0 0 0 0 0 0 0 0 0 0 0 0 0 0 0 0 0 0 0 -0 -0 -0 -0 -0 0 -0 -0 -0 0 0 0 0 0 0 0 0 0 0 0 0
0 0 0 0 0 0 0 0 0 0 0 0 0 0 0 0 0 0 0 0 0 0 0 -0 -0 -0 -0 0 0 0 0 -0 -0 -0 0 0 0 0 0 0 0 0 0 0
0 0 0 0 0 0 0 0 0 0 0 0 0 0 0 0 0 0 0 0 0 0 0 -0 -0 -0 0 0 0 0 0 0 0 0 0 0 0 0 0 0 0 0 0 0
0 0 0 0 0 0 0 0 0 0 0 0 0 0 0 0 0 0 0 0 0 0 0 0 -0 0 0 0 0 0 0 0 0 0 0 0 0 0 0 0 0 0 0 0
0 0 0 0 0 0 0 0 0 0 0 0 0 0 0 0 0 0 0 0 0 0 0 -0 -0 0 0 0 0 0 0 0 0 0 0 0 0 0 0 0 0 0 0 0
0 0 0 0 0 0 0 0 0 0 0 0 0 0 0 0 0 0 0 0 0 0 0 0 0 0 0 0 0 0 0 0 0 0 0 0 0 0 0 0 0 0 0 0
0 0 0 0 0 0 0 0 0 0 0 0 0 0 0 0 0 0 0 0 0 0 0 0 0 0 0 0 0 0 0 0 0 0 0 0 0 0 0 0 0 0 0 0
0 0 0 0 0 0 0 0 0 0 0 0 0 0 0 0 0 0 0 0 0 0 0 0 0 0 0 0 0 0 0 0 0 0 0 0 0 0 0 0 0 0 0 0
0 0 0 0 0 0 0 0 0 0 0 0 0 0 0 0 0 0 0 0 0 0 0 0 0 0 0 0 0 0 0 0 0 0 0 0 0 0 0 0 0 0 0 0
0 0 0 0 0 0 0 0 0 0 0 0 0 0 0 0 0 0 0 0 0 0 0 0 0 0 0 0 0 0 0 0 0 0 0 0 0 0 0 0 0 0 0 0
0 0 0 0 -0 -0 -0 0 0 0 0 0 0 0 0 0 0 0 0 0 0 0 0 0 0 0 0 0 0 0 0 0 0 0 0 0 0 0 0 0 0 0 0 0
0 0 0 0 0 0 0 0 0 0 0 0 0 0 0 0 0 0 0 0 0 0 0 0 0 0 0 0 0 0 0 0 0 0 0 0 0 0 0 0 0 0 0 0
Wind_Speed_500mb
4 7 7 28 30 37 47 58 35 32 22 40 20 16 9 25 33 27 20 12 5 15 27 40 51 60 68 74 78 82 93 99 107 105 82 72 70 80 86 91 85 74 81 70
10 3 6 5 28 28 34 29 34 17 11 17 28 14 6 25 30 32 20 9 11 24 34 42 54 62 65 70 76 87 95 100 100 83 73 74 79 84 83 76 69 71 59 59
10 10 13 9 42 43 35 19 17 26 10 13 11 16 38 43 42 31 16 7 21 28 32 42 53 61 65 72 82 90 95 96 91 83 79 75 77 74 69 68 64 51 50 57
10 12 14 10 19 20 32 26 23 17 9 17 19 39 41 47 39 22 7 12 20 27 38 49 55 55 64 76 84 92 94 93 88 85 82 76 70 61 62 53 43 37 43 45
12 16 5 9 11 23 29 22 27 28 17 16 42 38 22 32 20 8 6 16 22 33 37 47 52 55 68 79 86 91 85 85 81 78 72 66 56 53 48 40 31 33 35 34
9 12 23 7 13 41 10 11 14 25 17 23 34 11 8 31 11 1 12 14 23 26 37 47 49 58 69 80 85 83 78 79 75 68 57 52 45 42 32 25 25 26 24 21
10 3 8 9 15 54 26 12 18 34 33 34 11 11 22 25 8 16 11 16 21 28 40 43 51 59 71 78 76 74 73 72 67 57 49 42 35 27 21 20 18 17 12 9
7 7 14 20 29 28 12 21 41 45 39 32 27 24 15 8 14 8 8 14 24 30 34 41 50 60 71 74 69 67 66 64 59 52 43 32 22 18 15 15 11 8 5 5
10 8 4 35 10 39 53 46 33 35 29 23 18 13 12 12 5 4 12 21 24 24 33 39 46 59 66 65 61 60 59 56 52 44 34 24 16 12 8 8 6 2 3 10
11 10 11 29 46 49 41 35 31 25 25 20 17 13 7 5 6 11 14 14 16 24 31 37 43 54 61 56 51 50 51 48 44 38 30 22 15 9 5 4 3 5 11 19
5 21 22 29 41 39 30 27 27 25 23 19 14 8 6 8 11 10 10 13 24 24 29 31 40 48 54 49 43 42 43 39 36 34 28 23 13 11 5 4 4 7 16 22
10 23 16 21 43 49 44 35 25 20 16 11 5 8 10 10 10 12 14 19 21 20 26 29 36 41 45 44 38 36 37 32 31 30 25 18 12 8 8 7 6 2 10 16
10 41 48 47 40 30 33 24 16 8 2 7 8 9 12 13 15 15 15 16 16 21 22 25 29 34 37 36 36 31 28 25 23 23 20 13 7 9 17 20 17 13 9 11
65 68 36 34 27 25 20 15 11 5 5 9 14 16 18 17 17 16 15 13 13 16 17 22 23 25 28 28 33 29 25 18 17 18 16 11 8 10 15 23 28 28 20 14
43 37 42 37 22 16 14 15 14 16 13 14 11 12 13 14 18 21 16 14 18 15 10 15 18 21 22 22 27 23 25 21 16 13 16 14 12 11 15 23 29 32 31 28
49 47 40 34 34 26 18 16 16 20 15 12 10 12 16 20 22 17 10 17 20 13 8 14 22 22 22 16 19 15 17 20 16 13 16 17 15 12 14 20 25 28 30 33
53 32 36 36 34 32 27 21 16 13 10 10 9 12 12 13 13 12 16 21 19 12 4 8 15 27 25 15 12 12 11 10 14 15 17 19 18 17 13 15 18 21 25 26
30 33 27 29 35 31 25 18 9 9 11 9 6 5 4 3 11 19 21 17 15 12 2 3 14 25 21 6 10 9 7 8 8 10 14 17 19 19 17 15 17 20 23 21
20 26 30 28 21 18 22 18 14 13 13 10 10 10 8 7 10 16 19 18 15 10 5 5 14 23 11 3 4 3 3 4 7 9 12 15 17 20 17 17 22 26 24 21
29 27 24 24 23 21 22 20 21 18 17 17 15 12 8 8 11 16 17 17 15 10 2 6 14 14 4 1 1 1 2 7 7 10 13 14 15 14 17 21 26 29 27 26
33 30 29 30 30 26 25 24 22 21 18 16 11 11 10 8 11 10 9 11 10 6 4 6 8 8 2 1 4 4 7 9 10 12 14 14 16 18 22 28 32 26 22 22
28 28 27 29 28 26 24 22 18 16 19 17 14 14 13 12 9 9 10 8 11 10 9 10 6 4 4 6 8 11 12 11 13 14 14 17 21 24 28 29 26 23 23 22
23 25 27 25 24 23 24 20 17 11 13 18 22 17 13 13 13 13 12 12 12 12 9 8 9 10 10 10 12 15 17 17 17 17 18 20 24 28 30 25 25 26 26 24
25 26 29 26 23 24 24 19 17 14 14 12 19 19 15 12 16 18 17 16 13 15 15 16 16 17 19 19 20 20 20 20 21 22 23 24 24 27 27 25 24 22 22 21
29 30 31 32 28 26 20 18 18 16 15 14 12 16 19 16 11 15 18 19 19 19 21 21 20 19 20 21 21 22 22 21 22 22 23 24 24 25 24 22 22 21 20 18
30 32 26 23 25 26 24 23 17 15 14 14 10 11 18 20 19 19 20 21 21 21 21 21 20 20 20 20 20 22 22 22 23 22 22 22 22 21 21 20 19 18 17 18
29 27 28 29 25 24 25 20 17 18 18 17 15 12 19 25 22 21 23 26 22 22 22 22 22 22 21 21 22 21 24 23 24 24 23 22 21 21 21 22 22 22 19 17
Wind_Direction_500mb
156 16 289 201 191 192 198 217 204 214 183 183 165 162 150 133 155 149 135 123 44 349 340 337 335 329 326 330 327 324 322 319 321 324 320 310 307 311 310 308 304 299 299 297
194 330 359 221 188 191 208 209 227 164 180 172 153 102 126 176 161 145 138 118 12 349 339 335 333 330 328 323 321 321 322 322 325 323 319 314 313 309 313 308 308 303 303 309
196 133 105 266 214 199 203 183 199 205 134 152 139 156 175 169 157 146 136 40 354 347 341 338 330 323 322 320 320 322 327 328 327 321 320 318 316 315 314 315 309 306 314 310
131 120 205 267 205 196 198 201 201 224 140 166 171 170 163 159 150 143 117 357 355 348 343 333 321 315 316 321 325 330 331 332 326 322 321 318 317 319 318 314 312 319 315 313
165 204 348 266 193 186 180 217 201 210 183 168 136 127 141 154 153 148 356 344 343 341 329 321 314 313 322 326 332 333 333 329 327 327 322 320 320 321 319 321 326 330 321 313
162 171 208 185 171 179 102 252 188 197 177 150 146 159 214 182 176 320 328 323 331 319 316 317 312 321 329 331 334 334 332 332 331 326 325 322 322 322 326 337 339 337 327 322
156 181 278 252 152 144 169 220 155 151 159 152 161 166 161 174 221 310 304 327 317 309 316 312 320 327 330 334 336 334 333 333 333 331 326 321 326 329 345 348 349 346 342 351
147 163 232 201 163 174 156 124 131 134 140 135 136 143 158 239 294 294 323 312 302 304 302 317 325 329 334 335 334 332 333 335 335 333 332 330 339 346 359 346 349 354 359 73
169 195 313 167 127 134 149 142 142 146 155 161 171 201 246 275 180 269 290 292 288 291 313 324 329 336 338 337 332 330 334 339 338 339 340 344 355 356 354 354 331 4 122 125
122 146 178 160 139 148 144 140 148 163 171 189 216 239 175 195 247 248 258 237 276 307 315 324 332 336 340 334 333 335 340 343 344 350 355 0 13 8 334 318 250 192 163 151
173 169 139 150 139 135 131 134 133 130 131 132 143 170 220 220 200 220 224 270 292 301 310 322 329 333 336 334 336 341 345 345 352 360 5 10 23 33 356 286 280 195 173 168
186 167 115 147 136 134 127 126 130 138 131 124 150 161 170 201 225 227 255 275 284 294 306 319 327 336 338 336 346 346 343 350 360 7 12 14 31 64 79 56 77 164 185 174
152 146 131 127 123 131 130 126 128 138 182 265 274 263 257 259 249 239 252 264 273 291 311 321 330 336 339 345 349 351 346 354 7 16 19 26 66 109 115 105 94 91 126 150
137 128 114 133 126 123 126 124 122 144 233 230 228 241 246 236 223 227 242 256 265 284 292 316 330 338 342 352 352 359 353 0 14 29 31 47 92 117 126 129 126 117 113 128
139 151 141 129 134 136 144 143 134 128 133 137 153 181 193 220 246 254 256 251 241 235 272 324 343 348 345 355 355 1 2 8 22 39 50 65 76 109 123 128 126 122 123 122
124 124 130 132 136 139 154 143 157 151 156 160 190 216 231 241 254 252 225 220 206 230 256 5 2 351 342 356 0 7 10 11 29 36 63 80 92 99 121 134 135 134 135 136
127 122 136 143 148 148 150 158 170 175 194 213 230 247 248 233 229 212 202 195 209 208 223 6 340 332 332 336 344 352 15 32 29 43 63 77 85 100 115 134 137 140 139 144
153 158 172 180 171 163 154 162 187 178 188 197 185 166 169 196 203 190 196 194 190 201 219 330 336 320 324 327 321 340 8 56 66 56 57 65 79 95 112 130 134 137 134 134
143 151 157 163 161 173 171 174 210 194 158 150 154 142 142 157 164 186 189 182 179 181 211 6 331 307 315 315 310 345 13 91 101 95 92 88 86 85 93 118 133 133 131 132
135 139 150 165 171 180 181 176 155 152 156 158 150 142 134 133 142 148 150 158 170 179 194 325 325 323 324 347 216 245 288 149 126 122 118 115 105 99 107 119 125 122 118 119
136 140 142 147 144 144 145 153 156 152 145 148 149 156 148 130 148 150 128 142 147 157 233 281 290 318 339 256 169 165 155 158 153 137 130 123 114 112 119 127 127 118 117 119
145 143 148 146 142 149 156 152 144 154 162 164 159 169 172 169 162 166 201 222 212 184 220 244 252 178 140 123 121 132 133 141 139 137 132 128 121 119 120 123 125 127 128 130
166 162 159 157 160 157 141 133 125 133 178 183 178 169 177 185 192 189 182 180 178 200 219 180 158 149 146 150 136 132 130 128 129 132 133 131 125 124 125 125 127 126 126 126
172 171 170 167 171 170 150 139 129 119 110 132 170 167 172 164 181 202 202 182 191 160 154 141 135 133 130 132 137 136 128 123 126 129 134 137 139 136 139 140 136 135 133 134
175 176 179 180 182 165 157 148 152 159 155 144 148 178 185 185 189 167 166 165 156 150 143 136 132 130 129 130 130 132 133 138 140 141 140 142 144 143 144 146 144 145 143 143
183 186 182 170 160 163 163 168 168 170 168 167 167 179 178 178 173 163 160 154 151 151 147 142 140 140 143 145 150 151 151 149 146 146 145 149 152 153 152 156 159 160 156 150
179 177 175 176 180 180 176 173 189 190 192 193 196 181 171 164 169 167 164 158 160 160 161 161 162 163 170 168 163 161 156 156 156 158 161 164 166 168 172 167 163 161 162 158
Wind_Speed_850mb
4 7 7 28 30 37 47 58 35 32 22 40 20 16 9 25 33 27 20 12 5 15 27 40 51 60 68 74 78 82 93 99 107 105 82 72 70 80 86 91 85 74 81 70
10 3 6 5 28 28 34 29 34 17 11 17 28 14 6 25 30 32 20 9 11 24 34 42 54 62 65 70 76 87 95 100 100 83 73 74 79 84 83 76 69 71 59 59
10 10 13 9 42 43 35 19 17 26 10 13 11 16 38 43 42 31 16 7 21 28 32 42 53 61 65 72 82 90 95 96 91 83 79 75 77 74 69 68 64 51 50 57
10 12 14 10 19 20 32 26 23 17 9 17 19 39 41 47 39 22 7 12 20 27 38 49 55 55 64 76 84 92 94 93 88 85 82 76 70 61 62 53 43 37 43 45
12 16 5 9 11 23 29 22 27 28 17 16 42 38 22 32 20 8 6 16 22 33 37 47 52 55 68 79 86 91 85 85 81 78 72 66 56 53 48 40 31 33 35 34
9 12 23 7 13 41 10 11 14 25 17 23 34 11 8 31 11 1 12 14 23 26 37 47 49 58 69 80 85 83 78 79 75 68 57 52 45 42 32 25 25 26 24 21
10 3 8 9 15 54 26 12 18 34 33 34 11 11 22 25 8 16 11 16 21 28 40 43 51 59 71 78 76 74 73 72 67 57 49 42 35 27 21 20 18 17 12 9
7 7 14 20 29 28 12 21 41 45 39 32 27 24 15 8 14 8 8 14 24 30 34 41 50 60 71 74 69 67 66 64 59 52 43 32 22 18 15 15 11 8 5 5
10 8 4 35 10 39 53 46 33 35 29 23 18 13 12 12 5 4 12 21 24 24 33 39 46 59 66 65 61 60 59 56 52 44 34 24 16 12 8 8 6 2 3 10
11 10 11 29 46 49 41 35 31 25 25 20 17 13 7 5 6 11 14 14 16 24 31 37 43 54 61 56 51 50 51 48 44 38 30 22 15 9 5 4 3 5 11 19
5 21 22 29 41 39 30 27 27 25 23 19 14 8 6 8 11 10 10 13 24 24 29 31 40 48 54 49 43 42 43 39 36 34 28 23 13 11 5 4 4 7 16 22
10 23 16 21 43 49 44 35 25 20 16 11 5 8 10 10 10 12 14 19 21 20 26 29 36 41 45 44 38 36 37 32 31 30 25 18 12 8 8 7 6 2 10 16
10 41 48 47 40 30 33 24 16 8 2 7 8 9 12 13 15 15 15 16 16 21 22 25 29 34 37 36 36 31 28 25 23 23 20 13 7 9 17 20 17 13 9 11
65 68 36 34 27 25 20 15 11 5 5 9 14 16 18 17 17 16 15 13 13 16 17 22 23 25 28 28 33 29 25 18 17 18 16 11 8 10 15 23 28 28 20 14
43 37 42 37 22 16 14 15 14 16 13 14 11 12 13 14 18 21 16 14 18 15 10 15 18 21 22 22 27 23 25 21 16 13 16 14 12 11 15 23 29 32 31 28
49 47 40 34 34 26 18 16 16 20 15 12 10 12 16 20 22 17 10 17 20 13 8 14 22 22 22 16 19 15 17 20 16 13 16 17 15 12 14 20 25 28 30 33
53 32 36 36 34 32 27 21 16 13 10 10 9 12 12 13 13 12 16 21 19 12 4 8 15 27 25 15 12 12 11 10 14 15 17 19 18 17 13 15 18 21 25 26
30 33 27 29 35 31 25 18 9 9 11 9 6 5 4 3 11 19 21 17 15 12 2 3 14 25 21 6 10 9 7 8 8 10 14 17 19 19 17 15 17 20 23 21
20 26 30 28 21 18 22 18 14 13 13 10 10 10 8 7 10 16 19 18 15 10 5 5 14 23 11 3 4 3 3 4 7 9 12 15 17 20 17 17 22 26 24 21
29 27 24 24 23 21 22 20 21 18 17 17 15 12 8 8 11 16 17 17 15 10 2 6 14 14 4 1 1 1 2 7 7 10 13 14 15 14 17 21 26 29 27 26
33 30 29 30 30 26 25 24 22 21 18 16 11 11 10 8 11 10 9 11 10 6 4 6 8 8 2 1 4 4 7 9 10 12 14 14 16 18 22 28 32 26 22 22
28 28 27 29 28 26 24 22 18 16 19 17 14 14 13 12 9 9 10 8 11 10 9 10 6 4 4 6 8 11 12 11 13 14 14 17 21 24 28 29 26 23 23 22
23 25 27 25 24 23 24 20 17 11 13 18 22 17 13 13 13 13 12 12 12 12 9 8 9 10 10 10 12 15 17 17 17 17 18 20 24 28 30 25 25 26 26 24
25 26 29 26 23 24 24 19 17 14 14 12 19 19 15 12 16 18 17 16 13 15 15 16 16 17 19 19 20 20 20 20 21 22 23 24 24 27 27 25 24 22 22 21
29 30 31 32 28 26 20 18 18 16 15 14 12 16 19 16 11 15 18 19 19 19 21 21 20 19 20 21 21 22 22 21 22 22 23 24 24 25 24 22 22 21 20 18
30 32 26 23 25 26 24 23 17 15 14 14 10 11 18 20 19 19 20 21 21 21 21 21 20 20 20 20 20 22 22 22 23 22 22 22 22 21 21 20 19 18 17 18
29 27 28 29 25 24 25 20 17 18 18 17 15 12 19 25 22 21 23 26 22 22 22 22 22 22 21 21 22 21 24 23 24 24 23 22 21 21 21 22 22 22 19 17
Wind_Direction_850mb
156 16 289 201 191 192 198 217 204 214 183 183 165 162 150 133 155 149 135 123 44 349 340 337 335 329 326 330 327 324 322 319 321 324 320 310 307 311 310 308 304 299 299 297
194 330 359 221 188 191 208 209 227 164 180 172 153 102 126 176 161 145 138 118 12 349 339 335 333 330 328 323 321 321 322 322 325 323 319 314 313 309 313 308 308 303 303 309
196 133 105 266 214 199 203 183 199 205 134 152 139 156 175 169 157 146 136 40 354 347 341 338 330 323 322 320 320 322 327 328 327 321 320 318 316 315 314 315 309 306 314 310
131 120 205 267 205 196 198 201 201 224 140 166 171 170 163 159 150 143 117 357 355 348 343 333 321 315 316 321 325 330 331 332 326 322 321 318 317 319 318 314 312 319 315 313
165 204 348 266 193 186 180 217 201 210 183 168 136 127 141 154 153 148 356 344 343 341 329 321 314 313 322 326 332 333 333 329 327 327 322 320 320 321 319 321 326 330 321 313
162 171 208 185 171 179 102 252 188 197 177 150 146 159 214 182 176 320 328 323 331 319 316 317 312 321 329 331 334 334 332 332 331 326 325 322 322 322 326 337 339 337 327 322
156 181 278 252 152 144 169 220 155 151 159 152 161 166 161 174 221 310 304 327 317 309 316 312 320 327 330 334 336 334 333 333 333 331 326 321 326 329 345 348 349 346 342 351
147 163 232 201 163 174 156 124 131 134 140 135 136 143 158 239 294 294 323 312 302 304 302 317 325 329 334 335 334 332 333 335 335 333 332 330 339 346 359 346 349 354 359 73
169 195 313 167 127 134 149 142 142 146 155 161 171 201 246 275 180 269 290 292 288 291 313 324 329 336 338 337 332 330 334 339 338 339 340 344 355 356 354 354 331 4 122 125
122 146 178 160 139 148 144 140 148 163 171 189 216 239 175 195 247 248 258 237 276 307 315 324 332 336 340 334 333 335 340 343 344 350 355 0 13 8 334 318 250 192 163 151
173 169 139 150 139 135 131 134 133 130 131 132 143 170 220 220 200 220 224 270 292 301 310 322 329 333 336 334 336 341 345 345 352 360 5 10 23 33 356 286 280 195 173 168
186 167 115 147 136 134 127 126 130 138 131 124 150 161 170 201 225 227 255 275 284 294 306 319 327 336 338 336 346 346 343 350 360 7 12 14 31 64 79 56 77 164 185 174
152 146 131 127 123 131 130 126 128 138 182 265 274 263 257 259 249 239 252 264 273 291 311 321 330 336 339 345 349 351 346 354 7 16 19 26 66 109 115 105 94 91 126 150
137 128 114 133 126 123 126 124 122 144 233 230 228 241 246 236 223 227 242 256 265 284 292 316 330 338 342 352 352 359 353 0 14 29 31 47 92 117 126 129 126 117 113 128
139 151 141 129 134 136 144 143 134 128 133 137 153 181 193 220 246 254 256 251 241 235 272 324 343 348 345 355 355 1 2 8 22 39 50 65 76 109 123 128 126 122 123 122
124 124 130 132 136 139 154 143 157 151 156 160 190 216 231 241 254 252 225 220 206 230 256 5 2 351 342 356 0 7 10 11 29 36 63 80 92 99 121 134 135 134 135 136
127 122 136 143 148 148 150 158 170 175 194 213 230 247 248 233 229 212 202 195 209 208 223 6 340 332 332 336 344 352 15 32 29 43 63 77 85 100 115 134 137 140 139 144
153 158 172 180 171 163 154 162 187 178 188 197 185 166 169 196 203 190 196 194 190 201 219 330 336 320 324 327 321 340 8 56 66 56 57 65 79 95 112 130 134 137 134 134
143 151 157 163 161 173 171 174 210 194 158 150 154 142 142 157 164 186 189 182 179 181 211 6 331 307 315 315 310 345 13 91 101 95 92 88 86 85 93 118 133 133 131 132
135 139 150 165 171 180 181 176 155 152 156 158 150 142 134 133 142 148 150 158 170 179 194 325 325 323 324 347 216 245 288 149 126 122 118 115 105 99 107 119 125 122 118 119
136 140 142 147 144 144 145 153 156 152 145 148 149 156 148 130 148 150 128 142 147 157 233 281 290 318 339 256 169 165 155 158 153 137 130 123 114 112 119 127 127 118 117 119
145 143 148 146 142 149 156 152 144 154 162 164 159 169 172 169 162 166 201 222 212 184 220 244 252 178 140 123 121 132 133 141 139 137 132 128 121 119 120 123 125 127 128 130
166 162 159 157 160 157 141 133 125 133 178 183 178 169 177 185 192 189 182 180 178 200 219 180 158 149 146 150 136 132 130 128 129 132 133 131 125 124 125 125 127 126 126 126
172 171 170 167 171 170 150 139 129 119 110 132 170 167 172 164 181 202 202 182 191 160 154 141 135 133 130 132 137 136 128 123 126 129 134 137 139 136 139 140 136 135 133 134
175 176 179 180 182 165 157 148 152 159 155 144 148 178 185 185 189 167 166 165 156 150 143 136 132 130 129 130 130 132 133 138 140 141 140 142 144 143 144 146 144 145 143 143
183 186 182 170 160 163 163 168 168 170 168 167 167 179 178 178 173 163 160 154 151 151 147 142 140 140 143 145 150 151 151 149 146 146 145 149 152 153 152 156 159 160 156 150
179 177 175 176 180 180 176 173 189 190 192 193 196 181 171 164 169 167 164 158 160 160 161 161 162 163 170 168 163 161 156 156 156 158 161 164 166 168 172 167 163 161 162 158